TimeEET,TemperatureF,Dew PointF,Humidity,Sea Level PressureIn,VisibilityMPH,Wind Direction,Wind SpeedMPH,Gust SpeedMPH,PrecipitationIn,Events,Conditions,WindDirDegrees,DateUTC
12:20 AM,51.8,50.0,94,30.12,5.0,Calm,Calm,-,N/A,,Unknown,0,2012-10-28 22:20:00
12:50 AM,51.8,50.0,94,30.12,1.2,Variable,1.2,-,N/A,Fog,Patches of Fog,0,2012-10-28 22:50:00
1:20 AM,50.0,50.0,100,30.12,0.9,Variable,1.2,-,N/A,Fog,Patches of Fog,0,2012-10-28 23:20:00
1:50 AM,50.0,48.2,94,30.12,0.9,Calm,Calm,-,N/A,Fog,Patches of Fog,0,2012-10-28 23:50:00
2:20 AM,48.2,48.2,100,30.12,0.9,South,2.3,-,N/A,Fog,Patches of Fog,180,2012-10-29 00:20:00
2:50 AM,48.2,48.2,100,30.12,1.2,Calm,Calm,-,N/A,Fog,Patches of Fog,0,2012-10-29 00:50:00
3:20 AM,46.4,46.4,100,30.12,1.1,NNE,1.2,-,N/A,Fog,Patches of Fog,30,2012-10-29 01:20:00
3:50 AM,48.2,46.4,93,30.12,1.0,North,1.2,-,N/A,Fog,Patches of Fog,10,2012-10-29 01:50:00
4:20 AM,46.4,46.4,100,30.12,0.2,NNE,3.5,-,N/A,Fog,Fog,20,2012-10-29 02:20:00
4:50 AM,46.4,44.6,93,30.12,0.5,NNE,4.6,-,N/A,Fog,Patches of Fog,30,2012-10-29 02:50:00
5:20 AM,46.4,46.4,100,30.12,0.9,NE,4.6,-,N/A,Fog,Patches of Fog,40,2012-10-29 03:20:00
5:50 AM,46.4,46.4,100,30.12,0.2,NNE,4.6,-,N/A,Fog,Fog,20,2012-10-29 03:50:00
6:20 AM,48.2,48.2,100,30.12,0.2,NNE,2.3,-,N/A,Fog,Fog,20,2012-10-29 04:20:00
6:50 AM,48.2,48.2,100,30.15,0.6,Variable,1.2,-,N/A,Fog,Patches of Fog,0,2012-10-29 04:50:00
7:20 AM,50.0,50.0,100,30.15,0.9,ENE,3.5,-,N/A,Fog,Patches of Fog,70,2012-10-29 05:20:00
7:50 AM,51.8,51.8,100,30.15,1.6,Variable,2.3,-,N/A,Fog,Patches of Fog,0,2012-10-29 05:50:00
8:20 AM,53.6,53.6,100,30.15,1.6,WSW,3.5,-,N/A,Fog,Patches of Fog,250,2012-10-29 06:20:00
8:50 AM,53.6,53.6,100,30.15,0.7,SW,4.6,-,N/A,Fog,Patches of Fog,230,2012-10-29 06:50:00
9:20 AM,57.2,55.4,94,30.12,2.8,WSW,3.5,-,N/A,,Scattered Clouds,240,2012-10-29 07:20:00
9:50 AM,59.0,55.4,88,30.12,-9999.0,WSW,3.5,-,N/A,,Clear,240,2012-10-29 07:50:00
10:20 AM,64.4,53.6,68,30.12,-9999.0,Variable,2.3,-,N/A,,Clear,0,2012-10-29 08:20:00
10:50 AM,64.4,51.8,64,30.09,-9999.0,Variable,2.3,-,N/A,,Clear,0,2012-10-29 08:50:00
11:20 AM,66.2,53.6,64,30.09,-9999.0,WSW,5.8,-,N/A,,Clear,250,2012-10-29 09:20:00
11:50 AM,66.2,51.8,60,30.06,-9999.0,Variable,3.5,-,N/A,,Clear,0,2012-10-29 09:50:00
12:20 PM,68.0,50.0,52,30.06,6.2,Variable,3.5,-,N/A,,Partly Cloudy,0,2012-10-29 10:20:00
12:50 PM,69.8,50.0,49,30.04,6.2,WSW,3.5,-,N/A,,Partly Cloudy,250,2012-10-29 10:50:00
1:20 PM,69.8,51.8,53,30.04,6.2,Variable,4.6,-,N/A,,Scattered Clouds,0,2012-10-29 11:20:00
1:50 PM,71.6,50.0,46,30.04,6.2,WSW,4.6,-,N/A,,Scattered Clouds,240,2012-10-29 11:50:00
2:20 PM,71.6,48.2,43,30.04,6.2,WSW,5.8,-,N/A,,Scattered Clouds,250,2012-10-29 12:20:00
2:50 PM,71.6,44.6,38,30.04,6.2,West,4.6,-,N/A,,Scattered Clouds,260,2012-10-29 12:50:00
3:20 PM,69.8,48.2,46,30.04,6.2,WSW,4.6,-,N/A,,Scattered Clouds,240,2012-10-29 13:20:00
3:50 PM,68.0,48.2,49,30.01,6.2,SSW,3.5,-,N/A,,Scattered Clouds,210,2012-10-29 13:50:00
4:20 PM,66.2,50.0,56,30.04,6.2,SSW,3.5,-,N/A,,Scattered Clouds,200,2012-10-29 14:20:00
4:50 PM,62.6,50.0,63,30.04,6.2,SSW,1.2,-,N/A,,Scattered Clouds,200,2012-10-29 14:50:00
5:20 PM,60.8,50.0,68,30.04,-9999.0,West,2.3,-,N/A,,Clear,270,2012-10-29 15:20:00
5:50 PM,60.8,50.0,68,30.04,-9999.0,Calm,Calm,-,N/A,,Clear,0,2012-10-29 15:50:00
6:20 PM,57.2,51.8,82,30.04,-9999.0,Calm,Calm,-,N/A,,Clear,0,2012-10-29 16:20:00
6:50 PM,57.2,50.0,77,30.04,-9999.0,Calm,Calm,-,N/A,,Clear,0,2012-10-29 16:50:00
7:20 PM,57.2,50.0,77,30.04,-9999.0,Calm,Calm,-,N/A,,Clear,0,2012-10-29 17:20:00
7:50 PM,55.4,51.8,88,30.04,-9999.0,Variable,2.3,-,N/A,,Clear,0,2012-10-29 17:50:00
8:20 PM,55.4,50.0,82,30.04,-9999.0,Calm,Calm,-,N/A,,Clear,0,2012-10-29 18:20:00
8:50 PM,53.6,50.0,88,30.04,-9999.0,Variable,1.2,-,N/A,,Clear,0,2012-10-29 18:50:00
9:20 PM,53.6,50.0,88,30.04,-9999.0,NNE,3.5,-,N/A,,Clear,20,2012-10-29 19:20:00
9:50 PM,51.8,48.2,88,30.04,6.2,NE,4.6,-,N/A,,Scattered Clouds,40,2012-10-29 19:50:00
10:20 PM,53.6,50.0,88,30.04,-9999.0,NNE,4.6,-,N/A,,Clear,30,2012-10-29 20:20:00
10:50 PM,51.8,50.0,94,30.04,-9999.0,North,3.5,-,N/A,,Clear,10,2012-10-29 20:50:00
11:20 PM,51.8,50.0,94,30.04,-9999.0,NE,6.9,-,N/A,,Clear,50,2012-10-29 21:20:00
11:50 PM,51.8,48.2,88,30.06,-9999.0,NNE,6.9,-,N/A,,Clear,30,2012-10-29 21:50:00